Flag for Germany Weather past 2 weeks in Frankenthal (Pfalz), Rhineland-Palatinate, Germany

34 °F

Low clouds.

Feels Like: 29 °F
Forecast: 30 / 44 °F
Wind: 6 mph from Southwest

Location: Baden Wurttemberg - Neuostheim

Current Time: Nov 27, 2015 at 10:27:11 PM

Latest Report: Nov 27, 2015 at 7:50 PM

Visibility: 4 mi

Pressure: 30.04 "Hg

Humidity: 100%

Dew point: 34 °F

Location of Frankenthal (Pfalz)Location

Historic Weather in Frankenthal (Pfalz) — Graph


Frankenthal (Pfalz) temperature yesterday

Maximum temperature yesterday: 45 °F (at 12:20 PM)
Minimum temperature yesterday: 34 °F (at 8:50 PM)
Average temperature yesterday: 41 °F

Past Weeks' High & Low Weather Summary

High61 °F (Nov 18, 5:50 AM)100% (Nov 12, 7:50 PM)30.42 "Hg (Nov 12, 7:50 PM)
Low27 °F (Nov 27, 6:20 AM)51% (Nov 16, 10:20 AM)29.42 "Hg (Nov 21, 11:50 AM)
Average46 °F81%30.01 "Hg
* Reported Nov 12 7:20 PM — Nov 27 7:50 PM, Frankenthal (Pfalz), Weather by CustomWeather, © 2015

Note: Actual official high and low records may vary slightly from our data, if they occured in-between our weather recording intervals... More about our weather records


Frankenthal (Pfalz) weather history for previous 24 hours

Time TempWeatherWind HumidityBarometerVisibility
7:50 PM
Fri, Nov 27
34 °FLow clouds.6 mph100%30.04 "Hg4 mi
7:20 PM34 °FFog.6 mph100%30.04 "Hg3 mi
6:50 PM34 °FFog.6 mph100%30.04 "Hg3 mi
6:20 PM34 °FFog.6 mph100%30.04 "Hg2 mi
5:50 PM34 °FFog.7 mph100%30.04 "Hg2 mi
5:20 PM34 °FFog.5 mph93%30.04 "Hg1 mi
4:50 PM32 °FIce fog.3 mph100%30.07 "Hg1 mi
4:20 PM32 °FFog.3 mph100%30.07 "Hg1 mi
3:50 PM32 °FIce fog.3 mph100%30.07 "Hg0 mi
3:20 PM32 °FIce fog.5 mph100%30.07 "Hg0 mi
2:50 PM32 °FIce fog.3 mph100%30.07 "Hg1 mi
2:20 PM32 °FIce fog.3 mph100%30.09 "Hg1 mi
1:50 PM32 °FFog.3 mph100%30.09 "Hg0 mi
1:20 PM32 °FFog.2 mph100%30.09 "Hg0 mi
12:50 PM34 °FFog.3 mph100%30.12 "Hg0 mi
12:20 PM34 °FFog.3 mph100%30.12 "Hg0 mi
11:50 AM32 °FIce fog.2 mph100%30.12 "Hg0 mi
11:20 AM32 °FIce fog.3 mph100%30.15 "Hg0 mi
10:50 AM32 °FIce fog.3 mph100%30.15 "Hg0 mi
10:20 AM32 °FIce fog.1 mph100%30.15 "Hg0 mi
9:50 AM32 °FIce fog.1 mph100%30.15 "Hg0 mi
9:20 AM32 °FIce fog.1 mph100%30.15 "Hg0 mi
8:50 AM30 °FIce fog.1 mph100%30.15 "Hg0 mi
7:50 AM28 °FIce fog.2 mph100%30.15 "Hg1 mi
7:20 AM28 °FChilly.2 mph100%30.15 "Hg1 mi
6:50 AM27 °FIce fog.No wind100%30.15 "Hg0 mi
6:20 AM27 °FIce fog.No wind100%30.15 "Hg1 mi
5:50 AM28 °FIce fog.1 mph100%30.15 "Hg1 mi
5:20 AM28 °FIce fog.No wind100%30.15 "Hg0 mi
Weather by CustomWeather, © 2015

See weather overviewHow to use our weather pages